Meath Environmental Platform

Observations for Trim Market St

Time AQI Temp °C Hum % Pres Pa CO μg/m³ H₂S μg/m³ NO μg/m³ NO₂ μg/m³ O₃ μg/m³ SO₂ μg/m³ PM1 μg/m³ PM2.5 μg/m³ PM10 μg/m³
Tuesday 25 August 2026
01:41 3 15.9 74 43,299 0.31 0 1.44 17.39 43.88 0 4.28 5.74 9.94
01:40 3 15.9 74 43,487 0.31 0 1.43 16.11 45.94 0 3.56 5.26 8.13
01:39 3 15.9 74 43,664 0.31 0 1.33 14.65 45.33 0 4.28 5.74 8.74
01:37 3 15.9 74 44,114 0.32 0 1.18 18.11 43.64 0 4.28 8.15 11.75
01:35 3 15.9 74 44,380 0.32 0 1.14 15.58 45.62 0 2.14 4.79 9.94
01:33 3 15.9 74 44,607 0.32 0 1.5 12.05 51.95 0 3.56 5.75 8.74
01:27 3 15.9 74 44,752 0.32 0 1.33 16.92 44.93 0 4.28 5.75 8.74
01:24 3 15.9 74 44,973 0.32 0 1.38 16.45 45.54 0 4.28 6.72 9.95
01:22 3 15.9 74 45,081 0.31 0 1.21 17.3 44.65 0 5.7 6.27 8.13
01:20 3 15.9 74 45,166 0.32 0 1.17 19.68 42.9 0 4.99 6.24 9.34
01:15 3 15.9 74 45,317 0.32 0 1.29 18.35 44.99 0 4.28 6.25 9.35
01:14 3 15.9 74 45,320 0.33 0 1.29 19.42 49.43 0 4.99 7.21 11.16
01:13 3 15.9 74 45,341 0.32 0 1.28 14.51 47.89 0 4.28 5.28 8.14
01:12 3 15.9 74 45,346 0.33 0 1.4 19.18 47.45 0 2.14 4.32 7.53
01:11 3 15.9 74 45,401 0.33 0 1.37 16.44 48.3 0 3.56 5.28 8.74
01:10 3 15.9 74 45,405 0.32 0 1.36 19.39 45.48 0 5.7 7.69 11.77
01:09 3 15.9 74 45,454 0.32 0 1.34 18.05 47.3 0 4.28 6.25 9.95
01:08 3 15.9 74 45,453 0.32 0 1.28 19.15 46.56 0 2.85 5.77 9.95
01:07 3 15.9 74 45,488 0.33 0 1.14 18.34 52.28 0 4.28 7.69 11.77
01:06 3 15.9 74 45,486 0.32 0 1.26 20.37 45.52 0 4.99 5.29 8.14